sat.trackr.live / text

‹ back to catalog

LEMUR-2-DEMBITZ

NORAD 42842 · 2017-042T

PAYLOAD ACTIVE UNKNOWN

§ Identity

Operator
Country
US
Launch date
2017-07-14
Launch site
TYMSC
Launch vehicle
Mass (kg)
RCS (m²)

Purposes: earth_obs

External: N2YO · Heavens-Above · Gunter

§ Orbital elements

Epoch: 2026-09-08T11:20:29.180544Z

Period
93.96 min
Inclination
97.3845°
Eccentricity
0.0007475
Mean motion
15.32643818 rev/d
Perigee alt
462.8 km
Apogee alt
473.0 km
Semi-major
6,846.1 km
B*
5.8454e-4
RAAN
72.7327°
Arg perigee
82.6539°
Mean anomaly
277.5553°
Rev number
50,109

§ Raw data

LEMUR-2-DEMBITZ1 42842U 17042T   26251.47255996  .00018387  00000+0  58454-3 0  99922 42842  97.3845  72.7327 0007475  82.6539 277.5553 15.32643818501092

JSON: /api/v1/satellites/42842 · /tle

For live sub-satellite position, see the globe view (requires WebGL).

§ Visibility from observer

Set your observer location to see the next 7 days of passes ≥ 10°. The values pass through the URL so the page stays shareable.

No JS? Fill the form by hand. The geolocation button needs JavaScript.